Location: Sweet Grass
(48.9965°N, 111.9649°W)
Time: 23:39:34
(UTC+00:00)

SO-50 - Visible Passes

Search period start: 30 March 2023 00:00
Search period end: 09 April 2023 00:00
Orbit: 586 x 691 km, 64.6° (Epoch: 29 March)

Date Brightness Start Highest point End Pass type
(mag) Time Alt. Az. Time Alt. Az. Time Alt. Az.
30 Mar ? 07:25:03 15° NNE 07:25:03 15° NNE 07:25:58 10° NE visible
30 Mar ? 09:02:33 20° NNW 09:02:33 20° NNW 09:05:57 10° NNE visible
30 Mar ? 10:42:25 10° NNW 10:44:37 13° N 10:46:46 10° NNE visible
30 Mar ? 12:23:16 10° NNW 12:26:49 20° NNE 12:30:19 10° ENE visible
31 Mar ? 07:47:32 21° NNE 07:47:32 21° NNE 07:49:26 10° NNE visible
31 Mar ? 09:25:02 13° NW 09:26:39 15° NNW 09:29:27 10° NNE visible
31 Mar ? 11:06:31 10° NNW 11:09:00 14° N 11:11:27 10° NE visible
01 Apr ? 06:32:28 12° NE 06:32:28 12° NE 06:32:48 10° NE visible
01 Apr ? 08:09:57 22° N 08:09:57 22° N 08:12:52 10° NNE visible
01 Apr ? 09:48:44 10° NNW 09:51:00 13° N 09:53:15 10° NNE visible
01 Apr ? 11:30:09 10° NNW 11:33:19 17° NNE 11:36:25 10° ENE visible
02 Apr ? 06:54:47 19° NNE 06:54:47 19° NNE 06:56:20 10° NNE visible
02 Apr ? 08:32:16 16° NNW 08:33:05 17° NNW 08:36:18 10° NNE visible
02 Apr ? 10:13:09 10° NNW 10:15:24 13° N 10:17:37 10° NNE visible
02 Apr ? 11:53:36 10° NNW 11:57:30 23° NNE 12:01:17 10° E visible
03 Apr ? 05:39:31 10° NE 05:39:31 10° NE 05:39:35 10° NE visible
03 Apr ? 07:16:59 24° N 07:16:59 24° N 07:19:45 10° NNE visible
03 Apr ? 08:54:52 10° NW 08:57:23 14° N 08:59:54 10° NNE visible
03 Apr ? 10:36:58 10° NNW 10:39:45 15° NNE 10:42:28 10° NE visible
03 Apr ? 12:17:01 10° NNW 12:21:30 35° NE 12:25:49 10° ESE visible
04 Apr ? 06:01:30 21° NNE 06:01:30 21° NNE 06:03:10 10° NE visible
04 Apr ? 07:38:58 20° NW 07:39:33 20° NNW 07:43:09 10° NNE visible
04 Apr ? 09:19:34 10° NNW 09:21:45 13° N 09:23:54 10° NNE visible
04 Apr ? 11:00:29 10° NNW 11:03:59 19° NNE 11:07:25 10° ENE visible
05 Apr ? 04:45:43 13° NE 04:45:43 13° NE 04:46:15 10° NE visible
05 Apr ? 06:23:08 33° N 06:23:08 33° N 06:26:37 10° NNE visible
05 Apr ? 08:00:53 10° NW 08:03:46 15° NNW 08:06:38 10° NNE visible
05 Apr ? 09:43:41 10° NNW 09:46:06 14° N 09:48:32 10° NE visible
05 Apr ? 11:23:54 10° NNW 11:28:04 28° NNE 11:32:08 10° E visible
06 Apr ? 05:06:31 46° NE 05:06:31 46° NE 05:09:57 10° NE visible
06 Apr ? 06:43:49 18° WNW 06:46:02 24° NNW 06:50:00 10° NNE visible
06 Apr ? 08:25:48 10° NW 08:28:05 13° N 08:30:22 10° NNE visible
06 Apr ? 10:07:18 10° NNW 10:10:24 16° NNE 10:13:27 10° ENE visible
06 Apr ? 11:47:18 10° NNW 11:51:58 45° NE 11:56:27 10° ESE visible
07 Apr ? 03:44:10 10° S 03:48:27 32° ESE 03:52:47 10° NE visible
07 Apr ? 05:23:55 10° WSW 05:28:40 49° NW 05:33:27 10° NNE visible
07 Apr ? 07:06:53 10° WNW 07:10:09 17° NNW 07:13:25 10° NNE visible
07 Apr ? 08:50:14 10° NNW 08:52:27 13° N 08:54:39 10° NNE visible
07 Apr ? 10:30:44 10° NNW 10:34:34 22° NNE 10:38:18 10° E visible
07 Apr ? 12:10:48 10° NW 12:15:38 84° NE 12:20:17 10° SE visible
08 Apr ? 04:06:58 10° SSW 04:11:47 64° SE 04:16:39 10° NE visible
08 Apr ? 05:48:12 10° W 05:52:31 30° NW 05:56:51 10° NNE visible
08 Apr ? 07:31:51 10° NW 07:34:25 14° NNW 07:36:57 10° NNE visible
08 Apr ? 09:14:03 10° NNW 09:16:46 15° NNE 09:19:27 10° NE visible
08 Apr ? 10:54:08 10° NNW 10:58:33 34° NE 11:02:51 10° ESE visible
